www.srh.weather.gov   
NOAA logo - Click to go to the NOAA homepage   NWS logo
Other Public Products
Enter Your "City, ST" or zip code   
Current Version              Previous Version:    01  02  03  04  05  06  07  08  09  10  11  12  13  14  15  16  17  18  19  20  21  22  23  24  25  26  27  28  29  30  
   31  32  33  34  35  36  37  38  39  40  41  42  43  44  45  46  47  48  49  50  51  52  53  54  55  56  57  58  59  60  
[Printable]
302
FPUS83 KFGF 220710
OPUFGF
PRAIRIE TO PINES WEATHER ROUNDUP
NATIONAL WEATHER SERVICE EASTERN NORTH DAKOTA/GRAND FORKS ND
200 AM CDT TUE JUL 22 2014

 **SATELLITE DATA USED TO AUGMENT SKY COVER AT AUTOMATED STATIONS**
 *****  WEATHER ACROSS EASTERN NORTH DAKOTA  *****

CITY           SKY/WX    TMP DP  RH WIND       PRES   REMARKS
GRAND FORKS    CLOUDY    66  64  94 NW14      29.84R
GRAND FORKS AF CLOUDY    64  64 100 NW14      29.87R
GRAND CITY NWS   N/A     64 N/A N/A N6          N/A
BUXTON         NOT AVBL
DEVILS LAKE    CLOUDY    64  57  77 NW10      29.92S
FARGO          MOCLDY    68  64  87 N12       29.83R
WAHPETON ARPT  SUNNY     64  63  94 W7        29.86R
$$

 *****  WEATHER ACROSS CENTRAL AND WESTERN NORTH DAKOTA  *****

CITY           SKY/WX    TMP DP  RH WIND       PRES   REMARKS
JAMESTOWN      CLOUDY    67  64  90 NW13      29.93R
BISMARCK       CLEAR     64  62  93 NW6       30.00R
MINOT          MOCLDY    62  60  93 W7        30.01R
MINOT AFB      PTCLDY    61  61 100 NW8       30.00R
GARRISON         N/A     60  60 100 NW6       30.03R
WILLISTON      PTCLDY    58  56  93 CALM      30.05R
DICKINSON      CLEAR     58  57  97 CALM      30.07R FOG
HETTINGER      CLOUDY    60  59  96 S5        30.12S FOG
$$

 *****  OTHER OBSERVATIONS NORTHEAST NORTH DAKOTA  *****

CITY           SKY/WX    TMP DP  RH WIND       PRES   REMARKS
WALHALLA         N/A     63  63 100 NW6         N/A
LANGDON        FAIR      59  59 100 NW10      29.92F
CAVALIER       FAIR      63  61  94 NW5       29.89S
GRAFTON        CLOUDY    63  63 100 NW14      29.87R
CANDO          FAIR      59  59 100 NW8       29.96R
FORT TOTTEN      N/A     63  62  97 N6        29.95S
ROLLA          FAIR      59  59 100 NW8       29.98S
RUGBY          FAIR      59  59 100 NW3       29.97R
 ***** THE ABOVE OBSERVATIONS ARE NON NWS ARE NOT QUALITY
        CONTROLLED AND MAY MIS-REPORT RAIN FOR SNOW...
$$

 *****  OTHER OBSERVATIONS SOUTHEAST NORTH DAKOTA *****

CITY           SKY/WX    TMP DP  RH WIND       PRES   REMARKS
COOPERSTOWN    NOT AVBL
VALLEY CITY    FAIR      64  64 100 NW12      29.92R
OAKES          NOT AVBL
GWINNER          N/A     66  66 100 CALM      29.91R
SHEYENNE NWR     N/A     65  63  94 W5        29.95S
BUFFALO        NOT AVBL
WYNDMERE       NOT AVBL
 ***** THE ABOVE OBSERVATIONS ARE NON NWS ARE NOT QUALITY
       CONTROLLED AND MAY MIS-REPORT RAIN FOR SNOW...
$$

  *****  WEATHER ACROSS NORTHERN MINNESOTA  *****

CITY           SKY/WX    TMP DP  RH WIND       PRES   REMARKS
FLAG ISLAND    RAIN      66  63  88 NE12      29.75F
WARROAD        CLOUDY    64  61  88 N17       29.74R
ROSEAU         RAIN      63  57  82 N8        29.80R
HALLOCK        CLOUDY    63  61  94 NW9       29.86R
THF RVR FALLS  CLOUDY    64  63  94 NW13      29.84R
HALSTAD        NOT AVBL
FOSSTON        RAIN      63  61  94 N22G31    29.78R
BAUDETTE       LGT RAIN  66  64  93 N23G32    29.66F
WASKISH        CLOUDY    64  64 100 CALM      29.71R
CROOKSTON      NOT AVBL
$$
  *****  WEATHER ACROSS CENTRAL AND WEST MINNESOTA  *****

CITY           SKY/WX    TMP DP  RH WIND       PRES   REMARKS
BEMIDJI        CLOUDY    66  65  96 SW6       29.75F
PARK RAPIDS    CLOUDY    66  65  96 S10       29.73F
WADENA         CLOUDY    64  64 100 SW10      29.78F
DETROIT LAKES  CLOUDY    64  63  94 NW17G24   29.80R
MOORHEAD       CLOUDY    68  68 100 N14       29.81R
FERGUS FALLS   PTCLDY    66  64  94 W8        29.84R
ELBOW LAKE     FAIR      65  64  97 W7        29.84F
MORRIS MN      PTCLDY    66  64  94 NW7       29.84S
STAPLES        CLOUDY    64  64 100 W9        29.80R
WHEATON        CLEAR     64  63  94 W6        29.88R
$$
  *****  WEATHER ELSEWHERE ACROSS MINNESOTA  *****

CITY           SKY/WX    TMP DP  RH WIND       PRES   REMARKS
DULUTH         TSTM      68  64  87 SW8       29.82F
INTRNTL FALLS  LGT RAIN  68  66  93 NE8       29.63F
ELY            NOT AVBL
CLOQUET        TSTM      66  63  88 CALM      29.80F
BRAINERD       CLOUDY    65  64  97 SW8       29.74F
HIBBING        LGT RAIN  68  65  90 S3        29.80F
ALEXANDRIA     CLOUDY    67  32  27 W10       29.85R
SAINT CLOUD    CLOUDY    72  67  84 CALM      29.81R
MINNEAPOLIS    MOCLDY    82  76  81 S15G21    29.79F
$$

  *****  WEATHER ACROSS SOUTH DAKOTA  *****

CITY           SKY/WX    TMP DP  RH WIND       PRES   REMARKS
SIOUX FALLS    PTCLDY    74  73  97 W3        29.85R FOG
BROOKINGS      NOT AVBL
WATERTOWN      CLEAR     67  62  84 N9        29.90R
HURON          CLEAR     70  62  76 N13       29.89R
SISSETON         N/A     67  65  93 NW12      29.86R
ABERDEEN       CLEAR     64  63  96 W3        29.93R
MITCHELL       CLEAR     74  64  71 N12       29.89R
PIERRE         PTCLDY    68  64  87 W12       30.00R
MOBRIDGE       CLEAR     64  63  96 NW8       29.97R
RAPID CITY     PTCLDY    66  62  87 N9        30.10F
$$

  *****  SOME WEATHER IN NEARBY STATES *****

CITY           SKY/WX    TMP DP  RH WIND       PRES   REMARKS
GLASGOW MT     CLEAR     61  55  81 E8        30.06R
GREAT FALLS MT PTCLDY    56  43  61 N3        30.11R
CHEYENNE WY    PTCLDY    63  41  44 SW7       30.27R
SCOTTSBLUFF NE PTCLDY    65  59  81 N8        30.08R
OMAHA NE       CLOUDY    87  72  60 S10       29.88S HX  93
DES MOINES IA  PTCLDY    82  74  76 S12       29.91F
DAVENPORT IA   CLEAR     75  67  76 S10       30.02S
CHICAGO IL     CLEAR     72  63  73 SW5       30.05S
EAU CLAIRE WI  CLOUDY    79  70  74 S14       29.85F
LA CROSSE WI   CLOUDY    80  69  69 S12       29.90F
$$

  *****  SOME NATIONAL WEATHER *****

CITY           SKY/WX    TMP DP  RH WIND       PRES   REMARKS
LA GUARDIA NY  CLEAR     73  60  63 SW6       30.16S
RALEIGH NC     CLOUDY    72  70  93 NE3       30.14F FOG
ATLANTA GA     CLOUDY    72  69  90 E7        30.10F
NEW ORLEANS LA PTCLDY    80  75  84 SW6       30.00F
OKLAHOMA CITY  CLOUDY    77  72  84 SE8       30.05S
ALBUQUERQUE NM CLOUDY    82  45  27 SE7       30.24R
SALT LAKE CITY PTCLDY    72  46  39 S5        30.09R
LOS ANGELES CA PTCLDY    68  62  81 SW7       30.02R
BOISE ID       CLOUDY    74  54  49 CALM      30.07S
SEATTLE WA     PTCLDY    60  51  72 W3        30.02R
$$

*** WEATHER ACROSS MANITOBA...SASKATCHEWAN AND ONTARIO ***
                ***ONTARIO***

CITY           SKY/WX    TMP DP  RH WIND       PRES   REMARKS
GERALDTON      CLOUDY    68  64  88 SW7       29.89  THUNDER
THUNDER BAY    CLOUDY    61  61 100 E13       29.81F FOG
SIOUX LOOKOUT  TSTM      64  63  94 NE5       29.77F
TORONTO        CLEAR     68  63  83 S5        30.11S
BIG TROUT LK   MOCLDY    57  54  88 N9        29.89F
PICKLE LAKE    NOT AVBL
DRYDEN         TSTM      64  63  94 NE13G20   29.75F
KENORA         NOT AVBL
$$
                *** MANITOBA***

CITY           SKY/WX    TMP DP  RH WIND       PRES   REMARKS
BRANDON        MOCLDY    63  61  94 NW6       29.98S
DAUPHIN        CLOUDY    61  59  94 W6        29.99R
ISLAND LAKE    PTCLDY    59  55  88 NE6       29.96R
PILOT MOUND      N/A     59  57  94 NW7         N/A
THE PAS        CLEAR     59  54  82 N3        30.03R
THOMPSON       CLEAR     43  43 100 N3        30.03S
WINNIPEG       MOCLDY    63  61  94 N8        29.88S
LYNN LAKE      MOCLDY    52  50  93 W8        30.06R
CHURCHILL      PTCLDY    50  46  87 NW6       29.97R
GILLAM         PTCLDY    54  48  82 NW13      29.99S
$$
                ***SASKATCHEWAN***

CITY           SKY/WX    TMP DP  RH WIND       PRES   REMARKS
ESTEVAN        MOCLDY    61  59  94 N5        30.05R
KINDERSLEY     PTCLDY    55  54  94 SW3       30.10R
LLOYDMINSTER   CLEAR     50  46  87 W6        30.09R
PRINCE ALBERT  MOCLDY    54  52  94 CALM      30.05R
REGINA         CLOUDY    61  59  94 VRB2      30.07R



National Weather Service
Disclaimer
Last Modified: August 31, 2005
Privacy Policy